WD4HMR Weather Reports


time (UTC)temp
F
wind
direction
speed
knots
gust
knots
rain 1hr
in
rain 24hr
in
rain mn
in
humidity
%
barometer
mb
20260906101004 73 298 3.5 11.3 0.00 0.00 0.00 91 1012.8
20260906100504 73 333 2.6 7.0 0.00 0.00 0.00 92 1012.6
20260906100004 73 8 2.6 6.1 0.00 0.00 0.00 92 1012.5
20260906095504 73 29 2.6 7.0 0.00 0.00 0.00 92 1012.7
20260906095004 73 24 2.6 6.1 0.00 0.00 0.00 92 1012.7
20260906094504 73 314 2.6 7.0 0.00 0.00 0.00 92 1012.6
20260906094004 74 328 2.6 6.1 0.00 0.00 0.00 92 1012.4
20260906093504 74 288 2.6 7.8 0.00 0.00 0.00 92 1012.5
20260906093004 74 265 1.7 7.0 0.00 0.00 0.00 93 1012.3
20260906092504 74 257 1.7 6.1 0.00 0.00 0.00 93 1012.2
20260906092004 73 333 1.7 5.2 0.00 0.00 0.00 93 1012.1
20260906091504 73 306 1.7 5.2 0.00 0.00 0.00 93 1012.0
20260906090504 74 344 1.7 4.3 0.00 0.00 0.00 93 1011.8
20260906090004 73 281 1.7 4.3 0.00 0.00 0.00 92 1011.7
20260906085503 73 283 1.7 4.3 0.00 0.00 0.00 93 1011.6
20260906085004 73 353 1.7 2.6 0.00 0.00 0.00 93 1011.8
20260906084504 73 321 0.9 2.6 0.00 0.00 0.00 93 1011.7
20260906084003 73 286 0.9 4.3 0.00 0.00 0.00 93 1011.7
20260906083504 74 317 1.7 4.3 0.00 0.00 0.00 93 1011.7
20260906083004 74 296 0.9 4.3 0.00 0.00 0.00 93 1011.7
20260906082505 74 296 1.7 4.3 0.00 0.00 0.00 93 1011.7
20260906082004 74 300 1.7 2.6 0.00 0.00 0.00 93 1011.7
20260906081504 74 283 1.7 2.6 0.00 0.00 0.00 93 1011.6
20260906081004 74 281 0.9 2.6 0.00 0.00 0.00 93 1011.5
20260906080004 74 341 0.9 5.2 0.00 0.00 0.00 92 1011.8
20260906075504 74 266 1.7 5.2 0.00 0.00 0.00 92 1011.8
20260906075004 75 297 2.6 6.1 0.00 0.00 0.00 92 1011.9
20260906074503 75 284 1.7 5.2 0.00 0.00 0.00 93 1011.9
20260906074004 75 251 1.7 7.0 0.00 0.00 0.00 93 1012.0
20260906073504 76 259 2.6 7.0 0.00 0.00 0.00 92 1012.2
20260906073004 77 295 4.3 8.7 0.00 0.00 0.00 92 1012.1
20260906072503 78 290 3.5 8.7 0.00 0.00 0.00 92 1011.8
20260906071504 78 290 1.7 4.3 0.00 0.00 0.00 93 1011.6
20260906071004 78 275 2.6 4.3 0.00 0.00 0.00 93 1011.5
20260906070504 78 6 0.0 0.9 0.00 0.00 0.00 93 1011.5
20260906070004 78 304 0.9 4.3 0.00 0.00 0.00 93 1011.5
20260906065503 78 54 0.9 5.2 0.00 0.00 0.00 93 1011.5
20260906065003 77 101 2.6 5.2 0.00 0.00 0.00 93 1011.4
20260906064504 77 77 2.6 4.3 0.00 0.00 0.00 94 1011.0
20260906064003 77 303 0.9 1.7 0.00 0.00 0.00 94 1010.8
20260906063504 77 16 0.0 1.7 0.00 0.00 0.00 94 1010.8
20260906063005 77 285 0.9 2.6 0.00 0.00 0.00 94 1010.7
20260906063003 77 286 0.9 2.6 0.00 0.00 0.00 94 1010.7
20260906062504 77 335 0.9 1.7 0.00 0.00 0.00 94 1010.7
20260906062004 77 249 0.9 1.7 0.00 0.00 0.00 94 1010.7
20260906061504 77 56 0.9 1.7 0.00 0.00 0.00 94 1010.8
20260906061004 77 46 0.0 1.7 0.00 0.00 0.00 94 1010.9
20260906060504 77 292 0.9 2.6 0.00 0.00 0.00 94 1011.0
20260906060004 77 286 1.7 1.7 0.00 0.00 0.00 94 1011.1
20260906055503 77 270 0.9 2.6 0.00 0.00 0.00 94 1011.0
20260906054504 76 295 0.0 1.7 0.00 0.00 0.00 94 1011.2
20260906054004 76 337 0.9 1.7 0.00 0.00 0.00 94 1011.3
20260906053504 76 26 0.9 1.7 0.00 0.00 0.00 94 1011.4
20260906053004 76 304 0.9 2.6 0.00 0.00 0.00 94 1011.5
20260906052504 76 21 0.9 2.6 0.00 0.00 0.00 94 1011.7
20260906052004 76 17 0.9 1.7 0.00 0.00 0.00 94 1011.8
20260906051504 76 321 0.9 1.7 0.00 0.00 0.00 93 1012.0
20260906051004 76 49 0.9 1.7 0.00 0.00 0.00 93 1012.1
20260906050504 76 300 0.9 1.7 0.00 0.00 0.00 93 1012.1
20260906050004 76 279 0.9 1.7 0.00 0.00 0.00 93 1012.3
20260906045503 76 285 0.9 1.7 0.00 0.00 0.00 93 1012.2
20260906045004 76 37 0.9 1.7 0.00 0.00 0.00 93 1012.3
20260906044004 76 284 1.7 1.7 0.00 0.00 0.00 92 1012.3
20260906043504 76 80 0.0 1.7 0.00 0.00 0.00 92 1012.4
20260906043004 76 42 0.9 1.7 0.00 0.00 0.00 92 1012.5
20260906042503 76 340 0.9 1.7 0.00 0.00 0.00 91 1012.6
20260906042004 76 345 0.9 1.7 0.00 0.00 0.00 90 1012.8
20260906041503 76 102 0.9 2.6 0.00 0.00 0.00 90 1012.8
20260906041004 77 347 0.9 2.6 0.00 0.00 0.00 89 1013.3
20260906040504 77 80 1.7 4.3 0.00 0.00 0.00 87 1013.7
20260906040004 78 301 0.9 4.3 0.00 0.00 0.00 86 1014.0
20260906035504 79 263 0.9 2.6 0.00 0.00 0.00 86 1013.8
20260906035004 80 256 3.5 8.7 0.00 0.00 0.00 85 1014.2
20260906034505 81 277 2.6 7.8 0.00 0.00 0.00 88 1014.0
20260906034004 82 97 2.6 7.8 0.00 0.00 0.00 83 1015.1
20260906033504 82 126 2.6 7.8 0.00 0.00 0.00 83 1015.1
20260906033003 82 57 4.3 7.8 0.00 0.00 0.00 83 1015.0
20260906032503 82 121 2.6 4.3 0.00 0.00 0.00 81 1015.0
20260906032003 82 98 0.9 2.6 0.00 0.00 0.00 81 1014.7
20260906031504 82 82 0.9 1.7 0.00 0.00 0.00 81 1014.7
20260906031004 82 116 0.9 1.7 0.00 0.00 0.00 81 1014.6
20260906030504 82 307 1.7 2.6 0.00 0.00 0.00 81 1014.6
20260906030003 82 9 0.9 2.6 0.00 0.00 0.00 82 1014.5
20260906025503 83 353 0.9 1.7 0.00 0.00 0.00 82 1014.4
20260906025004 83 323 1.7 1.7 0.00 0.00 0.00 81 1014.4
20260906024503 83 290 0.0 1.7 0.00 0.00 0.00 81 1014.3
20260906024004 83 98 0.0 1.7 0.00 0.00 0.00 81 1014.4
20260906023003 83 345 0.9 2.6 0.00 0.00 0.00 80 1014.4
20260906022503 83 299 0.9 2.6 0.00 0.00 0.00 80 1014.5
20260906022004 83 303 1.7 2.6 0.00 0.00 0.00 80 1014.5
20260906021504 83 333 0.9 2.6 0.00 0.00 0.00 79 1014.5
20260906021004 83 282 1.7 2.6 0.00 0.00 0.00 79 1014.5
20260906020504 84 296 0.9 1.7 0.00 0.00 0.00 79 1014.5
20260906020004 84 29 0.9 1.7 0.00 0.00 0.00 78 1014.6
20260906015503 84 342 0.9 1.7 0.00 0.00 0.00 78 1014.6
20260906015004 84 278 0.9 2.6 0.00 0.00 0.00 78 1014.5
20260906014503 84 74 0.9 2.6 0.00 0.00 0.00 78 1014.4
20260906014003 84 272 1.7 2.6 0.00 0.00 0.00 77 1014.3
20260906013504 84 295 1.7 2.6 0.00 0.00 0.00 77 1014.3
20260906013004 84 284 1.7 4.3 0.00 0.00 0.00 76 1014.1
20260906012504 85 303 0.9 5.2 0.00 0.00 0.00 76 1014.1
20260906012003 85 290 2.6 5.2 0.00 0.00 0.00 76 1014.0
20260906011504 85 265 1.7 5.2 0.00 0.00 0.00 75 1014.0
20260906011004 85 315 1.7 5.2 0.00 0.00 0.00 75 1013.9
20260906010504 85 124 1.7 5.2 0.00 0.00 0.00 76 1013.7
20260906010004 86 296 1.7 5.2 0.00 0.00 0.00 76 1013.6
20260906005504 86 1 1.7 5.2 0.00 0.00 0.00 75 1013.7
20260906005003 86 72 1.7 4.3 0.00 0.00 0.00 74 1013.8
20260906004504 86 6 1.7 4.3 0.00 0.00 0.00 73 1013.8
20260906004004 87 358 0.9 2.6 0.00 0.00 0.00 72 1013.9
20260906003504 87 47 0.9 2.6 0.00 0.00 0.00 72 1013.9
20260906003004 87 18 1.7 4.3 0.00 0.00 0.00 71 1014.0
20260906002504 88 266 1.7 2.6 0.00 0.00 0.00 70 1014.0
20260906002004 88 307 0.9 2.6 0.00 0.00 0.00 69 1013.9
20260906001503 88 261 1.7 4.3 0.00 0.00 0.00 68 1013.9
20260906001004 89 252 1.7 4.3 0.00 0.00 0.00 66 1013.9
20260906000504 90 249 1.7 2.6 0.00 0.00 0.00 63 1014.0
20260906000003 91 248 1.7 2.6 0.00 0.00 0.00 60 1014.0
20260905235504 91 278 0.9 2.6 0.00 0.00 0.00 57 1014.0
20260905235004 91 329 1.7 4.3 0.00 0.00 0.00 56 1014.0
20260905234504 92 264 1.7 4.3 0.00 0.00 0.00 55 1014.0
20260905234003 92 332 0.9 2.6 0.00 0.00 0.00 55 1014.0
20260905233504 92 288 1.7 2.6 0.00 0.00 0.00 55 1014.0
20260905233004 92 285 1.7 4.3 0.00 0.00 0.00 55 1014.0
20260905232504 93 272 1.7 5.2 0.00 0.00 0.00 54 1013.9
20260905232003 93 284 0.9 5.2 0.00 0.00 0.00 54 1014.0
20260905231504 93 261 1.7 4.3 0.00 0.00 0.00 53 1013.9
20260905231004 94 285 1.7 4.3 0.00 0.00 0.00 53 1013.9
20260905230504 94 257 0.9 4.3 0.00 0.00 0.00 52 1013.9
20260905230004 95 291 2.6 5.2 0.00 0.00 0.00 51 1013.9
20260905225504 95 269 1.7 5.2 0.00 0.00 0.00 50 1013.9
20260905225004 95 288 1.7 5.2 0.00 0.00 0.00 51 1013.9
20260905224504 96 287 0.9 5.2 0.00 0.00 0.00 51 1013.9
20260905224004 96 294 2.6 5.2 0.00 0.00 0.00 50 1013.9
20260905223004 97 280 1.7 4.3 0.00 0.00 0.00 50 1013.8
20260905222504 96 100 0.9 2.6 0.00 0.00 0.00 49 1013.7
20260905222004 95 61 0.9 2.6 0.00 0.00 0.00 50 1013.7
20260905221504 95 108 0.9 2.6 0.00 0.00 0.00 50 1013.7
20260905221003 95 114 0.9 2.6 0.00 0.00 0.00 51 1013.8
20260905220504 95 149 0.9 2.6 0.00 0.00 0.00 51 1013.8
20260905220004 95 129 0.9 2.6 0.00 0.00 0.00 51 1013.8
20260905215504 95 116 1.7 5.2 0.00 0.00 0.00 51 1013.8
20260905215004 95 138 1.7 5.2 0.00 0.00 0.00 50 1013.8
20260905214504 96 129 1.7 6.1 0.00 0.00 0.00 50 1013.8
20260905214004 96 295 2.6 7.0 0.00 0.00 0.00 50 1013.7
20260905213504 97 95 2.6 7.0 0.00 0.00 0.00 48 1013.8
20260905213004 98 291 3.5 6.1 0.00 0.00 0.00 46 1013.7
20260905212503 98 300 2.6 6.1 0.00 0.00 0.00 46 1013.7
20260905212004 97 21 0.9 5.2 0.00 0.00 0.00 46 1013.8
20260905211504 97 63 2.6 5.2 0.00 0.00 0.00 47 1013.9
20260905211004 97 290 1.7 4.3 0.00 0.00 0.00 44 1013.8
20260905210504 96 352 2.6 5.2 0.00 0.00 0.00 46 1013.9
20260905210004 96 64 2.6 5.2 0.00 0.00 0.00 48 1013.9
20260905205504 96 137 1.7 5.2 0.00 0.00 0.00 47 1013.9
20260905205004 96 119 1.7 5.2 0.00 0.00 0.00 48 1014.0
20260905204504 96 77 1.7 7.0 0.00 0.00 0.00 49 1014.1
20260905204004 97 51 3.5 7.0 0.00 0.00 0.00 49 1014.0
20260905203504 98 59 2.6 5.2 0.00 0.00 0.00 46 1014.0
20260905203004 98 73 3.5 7.0 0.00 0.00 0.00 47 1014.1
20260905202503 97 61 0.9 7.0 0.00 0.00 0.00 46 1014.0
20260905202004 97 255 3.5 7.8 0.00 0.00 0.00 47 1014.1
20260905201503 97 278 4.3 7.8 0.00 0.00 0.00 46 1014.1
20260905201004 97 102 2.6 7.0 0.00 0.00 0.00 47 1014.1
20260905200504 98 65 4.3 6.1 0.00 0.00 0.00 45 1014.1
20260905200004 98 30 0.9 7.0 0.00 0.00 0.00 45 1014.2
20260905195504 98 138 1.7 7.0 0.00 0.00 0.00 46 1014.3
20260905195004 98 94 2.6 7.0 0.00 0.00 0.00 47 1014.4
20260905194503 98 68 1.7 6.1 0.00 0.00 0.00 46 1014.4
20260905194004 97 78 1.7 5.2 0.00 0.00 0.00 46 1014.5
20260905193504 97 84 2.6 6.1 0.00 0.00 0.00 46 1014.5
20260905193004 96 126 2.6 6.1 0.00 0.00 0.00 47 1014.6
20260905192504 96 44 1.7 7.0 0.00 0.00 0.00 47 1014.6
20260905192004 96 278 2.6 7.8 0.00 0.00 0.00 50 1014.7
20260905191505 96 52 2.6 7.8 0.00 0.00 0.00 49 1014.8
20260905191004 95 266 2.6 6.1 0.00 0.00 0.00 49 1014.8
20260905190504 95 280 2.6 5.2 0.00 0.00 0.00 50 1014.9
20260905190004 95 287 2.6 5.2 0.00 0.00 0.00 51 1015.0
20260905185504 95 30 2.6 4.3 0.00 0.00 0.00 50 1015.1
20260905185004 96 46 3.5 7.8 0.00 0.00 0.00 50 1015.1
20260905184504 96 67 1.7 5.2 0.00 0.00 0.00 50 1015.2
20260905184004 97 225 1.7 4.3 0.00 0.00 0.00 50 1015.2
20260905183504 97 78 1.7 4.3 0.00 0.00 0.00 50 1015.3
20260905183004 96 93 0.9 4.3 0.00 0.00 0.00 50 1015.4
20260905182504 95 274 3.5 6.1 0.00 0.00 0.00 52 1015.4
20260905182004 95 279 3.5 7.0 0.00 0.00 0.00 51 1015.5
20260905181504 96 261 3.5 7.0 0.00 0.00 0.00 51 1015.6
20260905181004 95 351 1.7 6.1 0.00 0.00 0.00 50 1015.6
20260905180504 95 99 2.6 6.1 0.00 0.00 0.00 49 1015.7
20260905180004 95 107 2.6 6.1 0.00 0.00 0.00 52 1015.9
20260905175504 95 220 2.6 6.1 0.00 0.00 0.00 53 1016.0
20260905175004 95 67 1.7 5.2 0.00 0.00 0.00 52 1016.0
20260905174504 96 154 3.5 7.0 0.00 0.00 0.00 52 1016.0
20260905174004 96 102 3.5 7.0 0.00 0.00 0.00 52 1016.0
20260905173504 95 151 1.7 5.2 0.00 0.00 0.00 50 1016.1
20260905173004 94 114 1.7 5.2 0.00 0.00 0.00 51 1016.1
20260905172504 93 129 1.7 5.2 0.00 0.00 0.00 52 1016.1
20260905172004 93 60 4.3 7.0 0.00 0.00 0.00 53 1016.2
20260905171004 92 60 1.7 5.2 0.00 0.00 0.00 56 1016.3
20260905170504 92 64 2.6 5.2 0.00 0.00 0.00 56 1016.4
20260905170003 91 63 2.6 6.1 0.00 0.00 0.00 57 1016.5
20260905165504 91 217 1.7 5.2 0.00 0.00 0.00 58 1016.6
20260905165004 91 46 0.9 7.0 0.00 0.00 0.00 58 1016.6
20260905164504 92 140 2.6 7.0 0.00 0.00 0.00 58 1016.6
20260905164004 92 257 1.7 7.0 0.00 0.00 0.00 58 1016.6
20260905163503 93 44 2.6 7.0 0.00 0.00 0.00 56 1016.7
20260905163004 93 357 1.7 5.2 0.00 0.00 0.00 56 1016.7
20260905162504 92 69 1.7 5.2 0.00 0.00 0.00 57 1016.7
20260905162004 92 68 3.5 7.8 0.00 0.00 0.00 58 1016.8
20260905161504 91 264 4.3 7.8 0.00 0.00 0.00 59 1016.8
20260905161004 92 289 2.6 7.8 0.00 0.00 0.00 58 1016.7
20260905160504 91 254 2.6 7.8 0.00 0.00 0.00 59 1016.7
20260905160004 91 85 4.3 7.8 0.00 0.00 0.00 60 1016.8
20260905155505 91 66 2.6 7.0 0.00 0.00 0.00 60 1016.8
20260905155003 91 255 4.3 7.8 0.00 0.00 0.00 59 1016.8
20260905154504 91 7 2.6 6.1 0.00 0.00 0.00 60 1016.8
20260905153504 90 334 2.6 6.1 0.00 0.00 0.00 60 1016.8
20260905153003 90 276 4.3 6.1 0.00 0.00 0.00 62 1016.8
20260905152504 91 275 4.3 7.8 0.00 0.00 0.00 62 1016.8
20260905152004 90 298 1.7 5.2 0.00 0.00 0.00 60 1016.8
20260905151004 90 338 1.7 5.2 0.00 0.00 0.00 62 1016.9
20260905150504 89 42 1.7 4.3 0.00 0.00 0.00 62 1016.9
20260905150004 89 292 1.7 4.3 0.00 0.00 0.00 64 1016.9
20260905145504 89 332 2.6 6.1 0.00 0.00 0.00 64 1016.9
20260905145004 89 47 2.6 5.2 0.00 0.00 0.00 64 1016.9
20260905144504 89 51 2.6 5.2 0.00 0.00 0.00 64 1016.9
20260905144004 88 19 2.6 5.2 0.00 0.00 0.00 65 1016.9
20260905143504 88 84 1.7 5.2 0.00 0.00 0.00 65 1016.9
20260905143004 87 63 1.7 6.1 0.00 0.00 0.00 66 1016.9
20260905142504 87 67 2.6 6.1 0.00 0.00 0.00 66 1016.9
20260905142004 87 279 1.7 4.3 0.00 0.00 0.00 66 1016.9
20260905141504 86 14 1.7 4.3 0.00 0.00 0.00 68 1016.9
20260905141004 85 274 2.6 7.0 0.00 0.00 0.00 70 1016.9
20260905140003 85 249 4.3 7.0 0.00 0.00 0.00 71 1017.0
20260905135503 84 277 1.7 6.1 0.00 0.00 0.00 71 1017.0
20260905135004 84 260 2.6 6.1 0.00 0.00 0.00 72 1016.9
20260905134504 84 264 2.6 5.2 0.00 0.00 0.00 72 1016.9
20260905134004 84 306 0.9 5.2 0.00 0.00 0.00 74 1016.9
20260905133504 84 262 1.7 4.3 0.00 0.00 0.00 74 1016.9
20260905133003 83 66 1.7 4.3 0.00 0.00 0.00 74 1016.9
20260905132504 83 27 1.7 4.3 0.00 0.00 0.00 75 1016.9
20260905132003 82 60 0.9 4.3 0.00 0.00 0.00 76 1016.9
20260905131504 82 313 1.7 4.3 0.00 0.00 0.00 78 1016.8
20260905131004 82 271 1.7 4.3 0.00 0.00 0.00 78 1016.8
20260905130504 82 259 0.9 2.6 0.00 0.00 0.00 78 1016.8
20260905130003 82 253 3.5 7.0 0.00 0.00 0.00 79 1016.7
20260905125503 82 303 0.9 2.6 0.00 0.00 0.00 78 1016.7
20260905125004 81 2 0.9 1.7 0.00 0.00 0.00 79 1016.6
20260905124504 80 352 0.9 2.6 0.00 0.00 0.00 80 1016.5
20260905124004 79 342 0.9 2.6 0.00 0.00 0.00 81 1016.4
20260905123504 79 277 0.9 2.6 0.00 0.00 0.00 83 1016.2
20260905123004 78 323 0.9 1.7 0.00 0.00 0.00 84 1015.9
20260905122503 77 220 0.9 1.7 0.00 0.00 0.00 85 1015.9
20260905122004 77 303 0.0 1.7 0.00 0.00 0.00 85 1015.6
20260905121504 76 286 1.7 1.7 0.00 0.00 0.00 86 1015.5
20260905121004 76 305 0.9 2.6 0.00 0.00 0.00 87 1015.3
20260905120504 75 286 1.7 2.6 0.00 0.00 0.00 88 1015.1
20260905120004 75 285 0.9 1.7 0.00 0.00 0.00 88 1014.9
20260905115503 75 287 0.9 1.7 0.00 0.00 0.00 88 1014.8
20260905114504 75 266 0.9 1.7 0.00 0.00 0.00 89 1014.8
20260905114004 75 41 0.9 1.7 0.00 0.00 0.00 88 1014.8
20260905113504 75 246 0.9 1.7 0.00 0.00 0.00 88 1014.8
20260905113004 75 349 0.9 1.7 0.00 0.00 0.00 88 1014.8
20260905112503 75 295 0.9 2.6 0.00 0.00 0.00 89 1014.7
20260905112005 75 286 0.9 1.7 0.00 0.00 0.00 88 1014.6
20260905111504 75 287 0.9 1.7 0.00 0.00 0.00 88 1014.6
20260905111005 75 240 0.9 1.7 0.00 0.00 0.00 88 1014.7
20260905110504 75 274 0.9 1.7 0.00 0.00 0.00 88 1014.7
20260905110004 75 269 0.9 1.7 0.00 0.00 0.00 88 1014.7
20260905105504 75 289 0.9 1.7 0.00 0.00 0.00 88 1014.8
20260905105004 75 284 1.7 1.7 0.00 0.00 0.00 88 1014.8
20260905104504 75 283 0.9 1.7 0.00 0.00 0.00 88 1014.8
20260905104003 75 261 1.7 1.7 0.00 0.00 0.00 87 1014.8
20260905103504 76 293 0.9 1.7 0.00 0.00 0.00 87 1014.9
20260905103004 76 69 0.9 1.7 0.00 0.00 0.00 87 1014.9
20260905102504 76 274 0.9 1.7 0.00 0.00 0.00 87 1014.9
20260905102004 76 299 0.9 2.6 0.00 0.00 0.00 87 1014.9
20260905101505 76 287 1.7 2.6 0.00 0.00 0.00 87 1014.8